Time,TemperatureF,DewpointF,PressureIn,WindDirection,WindDirectionDegrees,WindSpeedMPH,WindSpeedGustMPH,Humidity,HourlyPrecipIn,Conditions,Clouds,dailyrainin,SoftwareType,DateUTC
2013-01-20 00:02:00,45.0,37.0,30.18,WSW,243,0.0,5.0,73,0.00,,,0.00,,2013-01-20 06:02:00,
2013-01-20 00:12:00,45.0,37.0,30.18,WSW,243,0.0,5.0,73,0.00,,,0.00,,2013-01-20 06:12:00,
2013-01-20 00:22:00,45.0,37.0,30.18,SW,236,0.0,0.0,74,0.00,,,0.00,,2013-01-20 06:22:00,
2013-01-20 00:33:00,45.0,37.0,30.18,SW,227,1.0,4.0,74,0.00,,,0.00,,2013-01-20 06:33:00,
2013-01-20 00:42:00,45.0,37.0,30.18,SW,227,1.0,4.0,74,0.00,,,0.00,,2013-01-20 06:42:00,
2013-01-20 00:53:00,45.0,37.0,30.17,WSW,250,0.0,0.0,74,0.00,,,0.00,,2013-01-20 06:53:00,
2013-01-20 01:02:00,45.0,37.0,30.17,SW,227,0.0,4.0,74,0.00,,,0.00,,2013-01-20 07:02:00,
2013-01-20 01:12:00,45.0,37.0,30.17,SW,227,0.0,4.0,74,0.00,,,0.00,,2013-01-20 07:12:00,
2013-01-20 01:22:00,45.0,37.0,30.17,SW,231,0.0,6.0,73,0.00,,,0.00,,2013-01-20 07:22:00,
2013-01-20 01:32:00,45.0,37.0,30.17,SW,232,0.0,3.0,73,0.00,,,0.00,,2013-01-20 07:32:00,
2013-01-20 01:42:00,45.0,37.0,30.17,SW,232,0.0,3.0,73,0.00,,,0.00,,2013-01-20 07:42:00,
2013-01-20 01:52:00,45.0,37.0,30.17,SSW,202,2.0,5.0,73,0.00,,,0.00,,2013-01-20 07:52:00,
2013-01-20 02:02:00,45.0,37.0,30.18,SW,223,0.0,5.0,72,0.00,,,0.00,,2013-01-20 08:02:00,
2013-01-20 02:12:00,45.0,37.0,30.18,SW,223,0.0,5.0,72,0.00,,,0.00,,2013-01-20 08:12:00,
2013-01-20 02:22:00,45.0,36.0,30.18,SW,219,0.0,3.0,71,0.00,,,0.00,,2013-01-20 08:22:00,
2013-01-20 02:32:00,45.0,36.0,30.18,SSW,200,0.0,0.0,70,0.00,,,0.00,,2013-01-20 08:32:00,
2013-01-20 02:42:00,45.0,36.0,30.18,SSW,200,0.0,0.0,70,0.00,,,0.00,,2013-01-20 08:42:00,
2013-01-20 02:52:00,45.0,35.0,30.18,SW,235,0.0,0.0,69,0.00,,,0.00,,2013-01-20 08:52:00,
2013-01-20 03:02:00,45.0,35.0,30.18,WSW,248,0.0,0.0,69,0.00,,,0.00,,2013-01-20 09:02:00,
2013-01-20 03:12:00,45.0,35.0,30.18,WSW,248,0.0,0.0,69,0.00,,,0.00,,2013-01-20 09:12:00,
2013-01-20 03:22:00,45.0,36.0,30.18,West,271,0.0,2.0,70,0.00,,,0.00,,2013-01-20 09:22:00,
2013-01-20 03:33:00,44.0,35.0,30.18,West,265,0.0,2.0,70,0.00,,,0.00,,2013-01-20 09:33:00,
2013-01-20 03:42:00,44.0,35.0,30.18,West,265,0.0,2.0,70,0.00,,,0.00,,2013-01-20 09:42:00,
2013-01-20 03:53:00,44.0,35.0,30.18,West,261,0.0,1.0,70,0.00,,,0.00,,2013-01-20 09:53:00,
2013-01-20 04:02:00,44.0,35.0,30.18,WNW,288,0.0,0.0,70,0.00,,,0.00,,2013-01-20 10:02:00,
2013-01-20 04:12:00,44.0,35.0,30.18,WNW,288,0.0,0.0,70,0.00,,,0.00,,2013-01-20 10:12:00,
2013-01-20 04:22:00,44.0,35.0,30.17,WNW,288,0.0,2.0,71,0.00,,,0.00,,2013-01-20 10:22:00,
2013-01-20 04:32:00,43.0,35.0,30.17,WNW,288,0.0,0.0,72,0.00,,,0.00,,2013-01-20 10:32:00,
2013-01-20 04:42:00,43.0,35.0,30.17,WNW,288,0.0,0.0,72,0.00,,,0.00,,2013-01-20 10:42:00,
2013-01-20 04:52:00,42.0,34.0,30.17,WNW,288,0.0,0.0,74,0.00,,,0.00,,2013-01-20 10:52:00,
2013-01-20 05:02:00,41.0,34.0,30.17,WNW,288,0.0,0.0,76,0.00,,,0.00,,2013-01-20 11:02:00,
2013-01-20 05:12:00,41.0,34.0,30.17,WNW,288,0.0,0.0,76,0.00,,,0.00,,2013-01-20 11:12:00,
2013-01-20 05:22:00,40.0,34.0,30.19,WNW,288,0.0,0.0,78,0.00,,,0.00,,2013-01-20 11:22:00,
2013-01-20 05:32:00,39.0,33.0,30.19,WNW,288,0.0,0.0,80,0.00,,,0.00,,2013-01-20 11:32:00,
2013-01-20 05:42:00,39.0,33.0,30.19,WNW,288,0.0,0.0,80,0.00,,,0.00,,2013-01-20 11:42:00,
2013-01-20 05:53:00,38.0,33.0,30.19,WNW,288,0.0,0.0,82,0.00,,,0.00,,2013-01-20 11:53:00,
2013-01-20 06:03:00,38.0,33.0,30.19,WNW,288,0.0,0.0,83,0.00,,,0.00,,2013-01-20 12:03:00,
2013-01-20 06:12:00,38.0,33.0,30.19,WNW,288,0.0,0.0,83,0.00,,,0.00,,2013-01-20 12:12:00,
2013-01-20 06:23:00,37.0,33.0,30.20,WNW,288,0.0,0.0,84,0.00,,,0.00,,2013-01-20 12:23:00,
2013-01-20 06:33:00,37.0,33.0,30.20,WNW,288,0.0,0.0,84,0.00,,,0.00,,2013-01-20 12:33:00,
2013-01-20 06:43:00,37.0,33.0,30.20,WNW,288,0.0,0.0,84,0.00,,,0.00,,2013-01-20 12:43:00,
2013-01-20 06:53:00,36.0,32.0,30.20,WNW,288,0.0,0.0,86,0.00,,,0.00,,2013-01-20 12:53:00,
2013-01-20 07:02:00,36.0,32.0,30.20,WNW,288,0.0,0.0,86,0.00,,,0.00,,2013-01-20 13:02:00,
2013-01-20 07:12:00,36.0,32.0,30.20,WNW,288,0.0,0.0,86,0.00,,,0.00,,2013-01-20 13:12:00,
2013-01-20 07:23:00,35.0,32.0,30.20,WNW,288,0.0,0.0,87,0.00,,,0.00,,2013-01-20 13:23:00,
2013-01-20 07:33:00,35.0,32.0,30.21,WNW,288,0.0,0.0,87,0.00,,,0.00,,2013-01-20 13:33:00,
2013-01-20 07:42:00,35.0,32.0,30.21,WNW,288,0.0,0.0,87,0.00,,,0.00,,2013-01-20 13:42:00,
2013-01-20 07:53:00,35.0,32.0,30.22,WNW,288,0.0,0.0,88,0.00,,,0.00,,2013-01-20 13:53:00,
2013-01-20 08:02:00,35.0,32.0,30.22,WNW,288,0.0,0.0,90,0.00,,,0.00,,2013-01-20 14:02:00,
2013-01-20 08:12:00,35.0,32.0,30.22,WNW,288,0.0,0.0,90,0.00,,,0.00,,2013-01-20 14:12:00,
2013-01-20 08:23:00,37.0,34.0,30.23,WNW,288,0.0,0.0,90,0.00,,,0.00,,2013-01-20 14:23:00,
2013-01-20 08:32:00,39.0,36.0,30.23,WNW,288,0.0,0.0,89,0.00,,,0.00,,2013-01-20 14:32:00,
2013-01-20 08:42:00,39.0,36.0,30.23,WNW,288,0.0,0.0,89,0.00,,,0.00,,2013-01-20 14:42:00,
2013-01-20 08:53:00,41.0,37.0,30.24,WNW,288,0.0,0.0,87,0.00,,,0.00,,2013-01-20 14:53:00,
2013-01-20 09:03:00,43.0,38.0,30.24,NE,53,0.0,3.0,82,0.00,,,0.00,,2013-01-20 15:03:00,
2013-01-20 09:12:00,43.0,38.0,30.24,NE,53,0.0,3.0,82,0.00,,,0.00,,2013-01-20 15:12:00,
2013-01-20 09:23:00,45.0,38.0,30.24,ENE,57,5.0,10.0,75,0.00,,,0.00,,2013-01-20 15:23:00,
2013-01-20 09:33:00,47.0,38.0,30.25,NE,44,6.0,11.0,70,0.00,,,0.00,,2013-01-20 15:33:00,
2013-01-20 09:42:00,47.0,38.0,30.25,NE,44,6.0,11.0,70,0.00,,,0.00,,2013-01-20 15:42:00,
2013-01-20 09:53:00,49.0,37.0,30.25,NNE,12,4.0,14.0,63,0.00,,,0.00,,2013-01-20 15:53:00,
2013-01-20 10:03:00,49.0,36.0,30.25,NE,51,4.0,10.0,61,0.00,,,0.00,,2013-01-20 16:03:00,
2013-01-20 10:12:00,49.0,36.0,30.25,NE,51,4.0,10.0,61,0.00,,,0.00,,2013-01-20 16:12:00,
2013-01-20 10:23:00,50.0,36.0,30.25,East,99,4.0,8.0,58,0.00,,,0.00,,2013-01-20 16:23:00,
2013-01-20 10:33:00,52.0,36.0,30.24,ENE,71,4.0,11.0,55,0.00,,,0.00,,2013-01-20 16:33:00,
2013-01-20 10:42:00,52.0,36.0,30.24,ENE,71,4.0,11.0,55,0.00,,,0.00,,2013-01-20 16:42:00,
2013-01-20 10:53:00,52.0,35.0,30.24,East,100,3.0,10.0,53,0.00,,,0.00,,2013-01-20 16:53:00,
2013-01-20 11:03:00,53.0,34.0,30.23,ENE,66,7.0,14.0,49,0.00,,,0.00,,2013-01-20 17:03:00,
2013-01-20 11:12:00,53.0,34.0,30.23,ENE,66,7.0,14.0,49,0.00,,,0.00,,2013-01-20 17:12:00,
2013-01-20 11:22:00,54.0,35.0,30.23,ENE,61,5.0,11.0,49,0.00,,,0.00,,2013-01-20 17:22:00,
2013-01-20 11:33:00,54.0,34.0,30.22,NE,44,6.0,11.0,46,0.00,,,0.00,,2013-01-20 17:33:00,
2013-01-20 11:42:00,54.0,34.0,30.22,NE,44,6.0,11.0,46,0.00,,,0.00,,2013-01-20 17:42:00,
2013-01-20 11:53:00,54.0,33.0,30.21,North,5,5.0,10.0,44,0.00,,,0.00,,2013-01-20 17:53:00,
2013-01-20 12:03:00,55.0,32.0,30.20,East,101,5.0,11.0,42,0.00,,,0.00,,2013-01-20 18:03:00,
2013-01-20 12:12:00,55.0,32.0,30.20,East,101,5.0,11.0,42,0.00,,,0.00,,2013-01-20 18:12:00,
2013-01-20 12:23:00,55.0,32.0,30.19,NNE,19,7.0,10.0,42,0.00,,,0.00,,2013-01-20 18:23:00,
2013-01-20 12:33:00,56.0,31.0,30.18,ESE,121,6.0,8.0,38,0.00,,,0.00,,2013-01-20 18:33:00,
2013-01-20 12:43:00,56.0,31.0,30.18,ESE,121,6.0,8.0,38,0.00,,,0.00,,2013-01-20 18:43:00,
2013-01-20 12:53:00,56.0,31.0,30.17,East,90,3.0,11.0,39,0.00,,,0.00,,2013-01-20 18:53:00,
2013-01-20 13:02:00,56.0,33.0,30.17,NE,49,5.0,8.0,41,0.00,,,0.00,,2013-01-20 19:02:00,
2013-01-20 13:12:00,56.0,33.0,30.17,NE,49,5.0,8.0,41,0.00,,,0.00,,2013-01-20 19:12:00,
2013-01-20 13:22:00,57.0,32.0,30.16,East,101,0.0,8.0,38,0.00,,,0.00,,2013-01-20 19:22:00,
2013-01-20 13:33:00,57.0,32.0,30.16,ENE,57,4.0,8.0,39,0.00,,,0.00,,2013-01-20 19:33:00,
2013-01-20 13:42:00,57.0,32.0,30.16,ENE,57,4.0,8.0,39,0.00,,,0.00,,2013-01-20 19:42:00,
2013-01-20 13:53:00,58.0,33.0,30.16,NE,51,1.0,5.0,38,0.00,,,0.00,,2013-01-20 19:53:00,
2013-01-20 14:03:00,59.0,33.0,30.16,ESE,117,0.0,6.0,37,0.00,,,0.00,,2013-01-20 20:03:00,
2013-01-20 14:12:00,59.0,33.0,30.16,ESE,117,0.0,6.0,37,0.00,,,0.00,,2013-01-20 20:12:00,
2013-01-20 14:22:00,59.0,32.0,30.16,ESE,117,0.0,5.0,36,0.00,,,0.00,,2013-01-20 20:22:00,
2013-01-20 14:33:00,60.0,33.0,30.15,ESE,117,1.0,8.0,36,0.00,,,0.00,,2013-01-20 20:33:00,
2013-01-20 14:42:00,60.0,33.0,30.15,ESE,117,1.0,8.0,36,0.00,,,0.00,,2013-01-20 20:42:00,
2013-01-20 14:53:00,60.0,32.0,30.15,North,11,0.0,5.0,35,0.00,,,0.00,,2013-01-20 20:53:00,
2013-01-20 15:03:00,59.0,32.0,30.15,NE,55,0.0,6.0,36,0.00,,,0.00,,2013-01-20 21:03:00,
2013-01-20 15:13:00,59.0,32.0,30.15,NE,55,0.0,6.0,36,0.00,,,0.00,,2013-01-20 21:13:00,
2013-01-20 15:23:00,59.0,32.0,30.14,East,90,1.0,6.0,36,0.00,,,0.00,,2013-01-20 21:23:00,
2013-01-20 15:33:00,59.0,32.0,30.14,ENE,57,1.0,5.0,36,0.00,,,0.00,,2013-01-20 21:33:00,
2013-01-20 15:43:00,59.0,32.0,30.14,ENE,57,1.0,5.0,36,0.00,,,0.00,,2013-01-20 21:43:00,
2013-01-20 15:53:00,59.0,32.0,30.14,NE,34,2.0,4.0,36,0.00,,,0.00,,2013-01-20 21:53:00,
2013-01-20 16:03:00,59.0,32.0,30.14,NE,38,1.0,4.0,36,0.00,,,0.00,,2013-01-20 22:03:00,
2013-01-20 16:12:00,59.0,32.0,30.14,NE,38,1.0,4.0,36,0.00,,,0.00,,2013-01-20 22:12:00,
2013-01-20 16:22:00,58.0,31.0,30.14,North,360,1.0,8.0,36,0.00,,,0.00,,2013-01-20 22:22:00,
2013-01-20 16:33:00,58.0,32.0,30.14,NE,40,1.0,4.0,37,0.00,,,0.00,,2013-01-20 22:33:00,
2013-01-20 16:43:00,58.0,32.0,30.14,NE,40,1.0,4.0,37,0.00,,,0.00,,2013-01-20 22:43:00,
2013-01-20 16:53:00,58.0,32.0,30.14,NE,54,0.0,4.0,37,0.00,,,0.00,,2013-01-20 22:53:00,
2013-01-20 17:03:00,56.0,31.0,30.14,NE,51,2.0,8.0,38,0.00,,,0.00,,2013-01-20 23:03:00,
2013-01-20 17:13:00,56.0,31.0,30.14,NE,51,2.0,8.0,38,0.00,,,0.00,,2013-01-20 23:13:00,
2013-01-20 17:23:00,55.0,31.0,30.14,NNE,24,3.0,7.0,40,0.00,,,0.00,,2013-01-20 23:23:00,
2013-01-20 17:33:00,54.0,31.0,30.14,NE,36,1.0,6.0,41,0.00,,,0.00,,2013-01-20 23:33:00,
2013-01-20 17:43:00,54.0,31.0,30.14,NE,36,1.0,6.0,41,0.00,,,0.00,,2013-01-20 23:43:00,
2013-01-20 17:53:00,54.0,31.0,30.14,NE,34,0.0,3.0,42,0.00,,,0.00,,2013-01-20 23:53:00,
2013-01-20 18:03:00,53.0,31.0,30.14,NE,46,1.0,2.0,42,0.00,,,0.00,,2013-01-21 00:03:00,
2013-01-20 18:13:00,53.0,31.0,30.14,NE,46,1.0,2.0,42,0.00,,,0.00,,2013-01-21 00:13:00,
2013-01-20 18:22:00,52.0,33.0,30.14,NNE,12,0.0,0.0,48,0.00,,,0.00,,2013-01-21 00:22:00,
2013-01-20 18:33:00,51.0,32.0,30.14,North,5,0.0,0.0,48,0.00,,,0.00,,2013-01-21 00:33:00,
2013-01-20 18:43:00,51.0,32.0,30.14,North,5,0.0,0.0,48,0.00,,,0.00,,2013-01-21 00:43:00,
2013-01-20 18:53:00,49.0,31.0,30.14,NNE,25,1.0,4.0,50,0.00,,,0.00,,2013-01-21 00:53:00,
2013-01-20 19:03:00,49.0,32.0,30.14,NNE,31,0.0,2.0,52,0.00,,,0.00,,2013-01-21 01:03:00,
2013-01-20 19:13:00,49.0,32.0,30.14,NNE,31,0.0,2.0,52,0.00,,,0.00,,2013-01-21 01:13:00,
2013-01-20 19:23:00,48.0,32.0,30.14,NNE,30,0.0,4.0,53,0.00,,,0.00,,2013-01-21 01:23:00,
2013-01-20 19:33:00,47.0,32.0,30.14,NE,44,0.0,2.0,56,0.00,,,0.00,,2013-01-21 01:33:00,
2013-01-20 19:43:00,47.0,32.0,30.14,NE,44,0.0,2.0,56,0.00,,,0.00,,2013-01-21 01:43:00,
2013-01-20 19:53:00,47.0,33.0,30.14,NNE,15,1.0,5.0,57,0.00,,,0.00,,2013-01-21 01:53:00,
2013-01-20 20:03:00,46.0,32.0,30.14,ENE,67,4.0,8.0,58,0.00,,,0.00,,2013-01-21 02:03:00,
2013-01-20 20:12:00,46.0,32.0,30.14,ENE,67,4.0,8.0,58,0.00,,,0.00,,2013-01-21 02:12:00,
2013-01-20 20:23:00,45.0,32.0,30.15,NE,46,0.0,5.0,59,0.00,,,0.00,,2013-01-21 02:23:00,
2013-01-20 20:33:00,44.0,31.0,30.15,NE,34,0.0,6.0,61,0.00,,,0.00,,2013-01-21 02:33:00,
2013-01-20 20:43:00,44.0,31.0,30.15,NE,34,0.0,6.0,61,0.00,,,0.00,,2013-01-21 02:43:00,
2013-01-20 20:53:00,44.0,32.0,30.15,NE,47,3.0,7.0,63,0.00,,,0.00,,2013-01-21 02:53:00,
2013-01-20 21:03:00,43.0,32.0,30.15,ENE,65,1.0,4.0,64,0.00,,,0.00,,2013-01-21 03:03:00,
2013-01-20 21:12:00,43.0,32.0,30.15,ENE,65,1.0,4.0,64,0.00,,,0.00,,2013-01-21 03:12:00,
2013-01-20 21:23:00,43.0,32.0,30.15,NNE,33,0.0,0.0,65,0.00,,,0.00,,2013-01-21 03:23:00,
2013-01-20 21:33:00,42.0,31.0,30.15,ENE,63,0.0,5.0,66,0.00,,,0.00,,2013-01-21 03:33:00,
2013-01-20 21:43:00,42.0,31.0,30.15,ENE,63,0.0,5.0,66,0.00,,,0.00,,2013-01-21 03:43:00,
2013-01-20 21:53:00,42.0,32.0,30.15,ENE,68,0.0,1.0,67,0.00,,,0.00,,2013-01-21 03:53:00,
2013-01-20 22:03:00,42.0,32.0,30.16,ENE,60,0.0,2.0,68,0.00,,,0.00,,2013-01-21 04:03:00,
2013-01-20 22:12:00,42.0,32.0,30.16,ENE,60,0.0,2.0,68,0.00,,,0.00,,2013-01-21 04:12:00,
2013-01-20 22:23:00,41.0,31.0,30.16,ENE,58,0.0,4.0,68,0.00,,,0.00,,2013-01-21 04:23:00,
2013-01-20 22:33:00,41.0,31.0,30.16,NE,42,0.0,2.0,67,0.00,,,0.00,,2013-01-21 04:33:00,
2013-01-20 22:42:00,41.0,31.0,30.16,NE,42,0.0,2.0,67,0.00,,,0.00,,2013-01-21 04:42:00,
2013-01-20 22:53:00,40.0,30.0,30.16,NE,39,0.0,3.0,68,0.00,,,0.00,,2013-01-21 04:53:00,
2013-01-20 23:03:00,40.0,31.0,30.16,NE,49,0.0,0.0,69,0.00,,,0.00,,2013-01-21 05:03:00,
2013-01-20 23:12:00,40.0,31.0,30.16,NE,49,0.0,0.0,69,0.00,,,0.00,,2013-01-21 05:12:00,
2013-01-20 23:22:00,40.0,31.0,30.17,NE,49,0.0,2.0,70,0.00,,,0.00,,2013-01-21 05:22:00,
2013-01-20 23:33:00,39.0,30.0,30.17,NE,49,0.0,1.0,71,0.00,,,0.00,,2013-01-21 05:33:00,
2013-01-20 23:42:00,39.0,30.0,30.17,NE,49,0.0,1.0,71,0.00,,,0.00,,2013-01-21 05:42:00,
2013-01-20 23:53:00,39.0,30.0,30.17,NE,49,0.0,0.0,71,0.00,,,0.00,,2013-01-21 05:53:00,